This demonstration page uses our WeatherBlox Daily Observations layout. Learn more.

Left ArrowRight Arrow

36.19886, -115.1175

Hourly Observations for September 24, 2022

Temp ( °F °C ) Dew Point ( °F °C ) Humidity (%) Winds ( mph kmh ) Pressure ( in mb ) Visibility ( mi km ) Precip ( " mm )
12:53 am 00:53 Clear 81 27.2 28 -2.2 14 14 NW 8 13 29.99 1016 10 16 0.00 0.00
1:53 am 01:53 Clear 78 25.6 31 -0.6 18 18 W 8 13 29.99 1016 10 16 0.00 0.00
2:53 am 02:53 Clear 77 25 31 -0.6 18 18 NW 6 9 29.99 1016 10 16 0.00 0.00
3:53 am 03:53 Clear 76 24.4 33 0.6 21 21 W 3 6 30.00 1016 10 16 0.00 0.00
4:53 am 04:53 Clear 74 23.3 30 -1.1 20 20 E 3 6 30.02 1017 10 16 0.00 0.00
5:53 am 05:53 Clear 73 22.8 30 -1.1 20 20 NNW 8 13 30.03 1017 10 16 0.00 0.00
6:53 am 06:53 Sunny 72 22.2 35 1.7 26 26 WNW 5 7 30.06 1018 10 16 0.00 0.00
7:53 am 07:53 Sunny 76 24.4 35 1.7 23 23 Calm 30.09 1019 10 16 0.00 0.00
8:53 am 08:53 Sunny 81 27.2 33 0.6 18 18 Calm 30.09 1019 10 16 0.00 0.00
9:53 am 09:53 Sunny 86 30 31 -0.6 14 14 Calm 30.10 1019 10 16 0.00 0.00
10:53 am 10:53 Sunny 89 31.7 31 -0.6 13 13 Calm 30.10 1019 10 16 0.00 0.00
11:53 am 11:53 Sunny 91 32.8 27 -2.8 10 10 ESE 5 7 30.09 1019 10 16 0.00 0.00
12:53 pm 12:53 Sunny 93 33.9 28 -2.2 10 10 VRB 3 6 30.06 1018 10 16 0.00 0.00
1:53 pm 13:53 Mostly Sunny 94 34.4 27 -2.8 9 9 SE 8 13 30.04 1017 10 16 0.00 0.00
2:53 pm 14:53 Sunny 95 35 25 -3.9 8 8 VRB 3 6 30.02 1017 10 16 0.00 0.00
3:53 pm 15:53 Sunny 96 35.6 31 -0.6 10 10 undefined N/A 30.00 1016 10 16 0.00 0.00
4:53 pm 16:53 Sunny 97 36.1 35 1.7 12 12 VRB 3 6 29.98 1015 10 16 0.00 0.00
5:53 pm 17:53 Sunny 96 35.6 36 2.2 12 12 Calm 29.98 1015 10 16 0.00 0.00
6:53 pm 18:53 Clear 92 33.3 35 1.7 14 14 E 3 6 30.00 1016 10 16 0.00 0.00
7:53 pm 19:53 Clear 88 31.1 31 -0.6 13 13 E 5 7 30.01 1016 10 16 0.00 0.00
8:53 pm 20:53 Clear 88 31.1 32 0 14 14 Calm 30.02 1017 10 16 0.00 0.00
9:53 pm 21:53 Clear 84 28.9 39 3.9 20 20 W 6 9 30.03 1017 10 16 0.00 0.00
10:53 pm 22:53 Clear 81 27.2 38 3.3 21 21 W 5 7 30.03 1017 10 16 0.00 0.00
11:53 pm 23:53 Clear 80 26.7 35 1.7 20 20 WNW 8 13 30.02 1017 10 16 0.00 0.00

Powered by AerisWeather